Weather History for Williamtown, NW

Change the Weather History Date:

Friday, July 12, 2013

  Actual Average Record
Temperature  
Mean Temperature 52 °F -  
Max Temperature 62 °F - - ()
Min Temperature 41 °F - - ()
Degree Days  
Heating Degree Days 14    
Growing Degree Days 2 (Base 50)    
Moisture  
Dew Point 46 °F    
Average Humidity 94    
Maximum Humidity 100    
Minimum Humidity 57    
Precipitation  
Precipitation 0.00 in - - ()
Sea Level Pressure  
Sea Level Pressure 30.40 in    
Wind  
Wind Speed 3 mph ()    
Max Wind Speed 13 mph    
Max Gust Speed -    
Visibility 2.6 miles    
Events Fog    
T = Trace of Precipitation, MM = Missing Value Source: Averaged Metar Reports

Daily Weather History Graph

Daily Weather History Graph

Search for Another Location

Airport:

Trip Planner

Search our weather history database for the weather conditions in past years. The results will help you decide how hot, cold, wet, or windy it might be!

Date:

Astronomy

Jul. 12, 2013 Rise Set
Actual Time 6:54 AM AEST 5:02 PM AEST
Civil Twilight 6:27 AM AEST 5:29 PM AEST
Nautical Twilight 5:56 AM AEST 5:59 PM AEST
Astronomical Twilight 5:26 AM AEST 6:29 PM AEST
Moon 8:53 AM AEST (7/12) 8:43 PM AEST (7/12)
Length of Visible Light 11h 02m
Length of Day
10h 08m
Waxing Crescent, 13% of the Moon is Illuminated
Jul 12
Waxing Crescent
Jul 16
First Quarter
Jul 23
Full
Jul 30
Last Quarter
Aug 7
New

Hourly Weather History & Observations

Time (AEST) Temp. Windchill Dew Point Humidity Pressure Visibility Wind Dir Wind Speed Gust Speed Precip Events Conditions
12:00 AM 44 °F - 43 °F 97% 30.49 in 0 mi Calm Calm - -  
12:00 AM 44.6 °F - 42.8 °F 93% 30.48 in 0.4 mi Calm Calm - N/A   Unknown
12:02 AM 44.6 °F - 42.8 °F 93% 30.48 in 0.6 mi Calm Calm - N/A   Unknown
12:12 AM 44.6 °F - 44.6 °F 100% 30.48 in - Calm Calm - N/A   Unknown
12:14 AM 44.6 °F - 44.6 °F 100% 30.48 in 1.1 mi Calm Calm - N/A   Unknown
12:30 AM 44.6 °F - 42.8 °F 93% 30.48 in 1.1 mi Calm Calm - N/A   Unknown
12:41 AM 42.8 °F - 42.8 °F 100% 30.48 in 3.7 mi Calm Calm - N/A   Mostly Cloudy
1:00 AM 50 °F - 50 °F 98% 30.45 in - NW 9.2 mph - -  
1:00 AM 42.8 °F - 42.8 °F 100% 30.45 in 1.9 mi Calm Calm - N/A   Overcast
1:04 AM 42.8 °F - 42.8 °F 100% 30.45 in 0.5 mi Calm Calm - N/A   Overcast
1:28 AM 42.8 °F - 42.8 °F 100% 30.45 in - Calm Calm - N/A   Scattered Clouds
1:30 AM 42.8 °F - 42.8 °F 100% 30.45 in - Calm Calm - N/A   Scattered Clouds
1:45 AM 42.8 °F - 42.8 °F 100% 30.45 in 6.2 mi Calm Calm - N/A   Unknown
1:48 AM 42.8 °F - 41.0 °F 93% 30.45 in 6.2 mi Calm Calm - N/A   Unknown
2:00 AM 42.8 °F - 42.8 °F 100% 30.45 in 5.6 mi Calm Calm - N/A   Unknown
2:02 AM 42.8 °F - 42.8 °F 100% 30.45 in 3.7 mi Calm Calm - N/A   Scattered Clouds
2:12 AM 42.8 °F - 42.8 °F 100% 30.45 in 0.6 mi Calm Calm - N/A   Scattered Clouds
2:22 AM 42.8 °F - 42.8 °F 100% 30.45 in 0.6 mi NW 1.2 mph - N/A   Scattered Clouds
2:29 AM 42.8 °F 40.1 °F 42.8 °F 100% 30.45 in 0.5 mi NW 4.6 mph - N/A   Scattered Clouds
2:30 AM 42.8 °F 40.1 °F 42.8 °F 100% 30.45 in 0.4 mi NW 4.6 mph - N/A   Scattered Clouds
2:41 AM 42.8 °F 40.1 °F 42.8 °F 100% 30.45 in 0.6 mi NW 4.6 mph - N/A   Mostly Cloudy
3:00 AM 43 °F - 43 °F 100% 30.45 in 0 mi NW 4.6 mph - -  
3:00 AM 42.8 °F 40.1 °F 42.8 °F 100% 30.45 in 0.1 mi NW 4.6 mph - N/A   Overcast
3:30 AM 42.8 °F - 41.0 °F 93% 30.42 in 0.2 mi East 2.3 mph - N/A   Scattered Clouds
3:37 AM 42.8 °F - 42.8 °F 100% 30.42 in 0.2 mi Calm Calm - N/A   Scattered Clouds
3:45 AM 41.0 °F 39.0 °F 41.0 °F 100% 30.42 in 0.2 mi NW 3.5 mph - N/A   Mostly Cloudy
4:00 AM 50 °F - 50 °F 98% 30.45 in - NW 9.2 mph - -  
4:00 AM 42.8 °F 41.1 °F 42.8 °F 100% 30.42 in 0.1 mi WNW 3.5 mph - N/A   Mostly Cloudy
4:30 AM 44.6 °F 43.1 °F 44.6 °F 100% 30.42 in 0.1 mi WNW 3.5 mph - N/A   Overcast
5:00 AM 44.6 °F 42.2 °F 44.6 °F 100% 30.42 in 0.1 mi WNW 4.6 mph - N/A   Overcast
5:30 AM 44.6 °F 42.2 °F 44.6 °F 100% 30.42 in 0.1 mi WNW 4.6 mph - N/A   Overcast
6:00 AM 45 °F - 45 °F 100% 30.43 in 0 mi WNW 9.2 mph - -   Overcast
6:00 AM 44.6 °F 39.7 °F 44.6 °F 100% 30.42 in 0.1 mi WNW 9.2 mph - N/A Fog Fog
6:30 AM 46.4 °F 43.5 °F 46.4 °F 100% 30.42 in 0.1 mi NW 5.8 mph - N/A Fog Fog
7:00 AM 49 °F - 49 °F 99% 30.47 in 0 mi WNW 10.4 mph - -   Overcast
7:00 AM 46.4 °F 42.9 °F 46.4 °F 100% 30.42 in 0.1 mi NW 6.9 mph - N/A Fog Fog
7:30 AM 46.4 °F 42.9 °F 46.4 °F 100% 30.42 in 0.1 mi NW 6.9 mph - N/A   Overcast
8:00 AM 49 °F - 49 °F 99% 30.47 in 0 mi WNW 10.4 mph - -   Overcast
8:00 AM 46.4 °F 41.5 °F 46.4 °F 100% 30.42 in 0.2 mi WNW 10.4 mph - N/A Fog Fog
8:30 AM 48.2 °F - 48.2 °F 100% 30.45 in 0.2 mi WNW 8.1 mph - N/A Fog Fog
9:00 AM 49 °F - 49 °F 99% 30.47 in 0 mi WNW 10.4 mph - -   Overcast
9:00 AM 48.2 °F - 48.2 °F 100% 30.45 in 0.3 mi WNW 10.4 mph - N/A Fog Fog
9:30 AM 48.2 °F - 48.2 °F 100% 30.45 in 0.5 mi WNW 10.4 mph - N/A Fog Fog
10:00 AM 53 °F - 51 °F 92% 30.42 in - WNW 12.7 mph - -  
10:00 AM 50.0 °F - 50.0 °F 100% 30.45 in 0.5 mi NW 9.2 mph - N/A Fog Fog
10:30 AM 51.8 °F - 50.0 °F 94% 30.45 in 0.9 mi NW 9.2 mph - N/A   Overcast
11:00 AM 51.8 °F - 51.8 °F 100% 30.42 in 1.2 mi WNW 8.1 mph - N/A   Overcast
11:30 AM 51.8 °F - 51.8 °F 100% 30.42 in 2.8 mi NW 9.2 mph - N/A   Overcast
12:00 PM 53 °F - 51 °F 92% 30.42 in - WNW 12.7 mph - -  
12:00 PM 53.6 °F - 51.8 °F 94% 30.39 in 3.1 mi WNW 12.7 mph - N/A   Haze
12:30 PM 53.6 °F - 51.8 °F 94% 30.39 in 3.7 mi NW 11.5 mph - N/A   Haze
1:00 PM 48 °F - 47 °F 93% 30.35 in - Calm Calm - -  
1:00 PM 55.4 °F - 51.8 °F 88% 30.36 in 5.0 mi NW 9.2 mph - N/A   Mostly Cloudy
1:30 PM 59.0 °F - 53.6 °F 82% 30.33 in 6.2 mi NW 6.9 mph - N/A   Mostly Cloudy
2:00 PM 59.0 °F - 51.8 °F 77% 30.33 in - NW 10.4 mph - N/A   Clear
2:30 PM 60.8 °F - 50.0 °F 68% 30.33 in - West 12.7 mph - N/A   Clear
3:00 PM 61 °F - 50 °F 57% 30.35 in - West 8.1 mph - -  
3:00 PM 60.8 °F - 50.0 °F 68% 30.33 in - West 8.1 mph - N/A   Clear
3:30 PM 62.6 °F - 50.0 °F 63% 30.33 in - WNW 6.9 mph - N/A   Clear
4:00 PM 50 °F - 49 °F 93% 30.35 in - Calm Calm - -  
4:00 PM 60.8 °F - 48.2 °F 63% 30.33 in - WNW 8.1 mph - N/A   Clear
4:30 PM 59.0 °F - 50.0 °F 72% 30.33 in 6.2 mi WNW 6.9 mph - N/A   Scattered Clouds
5:00 PM 50 °F - 49 °F 93% 30.35 in - Calm Calm - -  
5:00 PM 55.4 °F - 51.8 °F 88% 30.33 in 6.2 mi NW 3.5 mph - N/A   Unknown
5:30 PM 53.6 °F - 50.0 °F 88% 30.33 in 6.2 mi Calm Calm - N/A   Scattered Clouds
6:00 PM 50 °F - 49 °F 93% 30.35 in - Calm Calm - -  
6:00 PM 50.0 °F - 48.2 °F 94% 30.33 in 6.2 mi Calm Calm - N/A   Unknown
6:30 PM 50.0 °F - 48.2 °F 94% 30.33 in 6.2 mi Calm Calm - N/A   Unknown
7:00 PM 48 °F - 47 °F 93% 30.35 in - Calm Calm - -  
7:00 PM 48.2 °F - 46.4 °F 93% 30.33 in 6.2 mi Calm Calm - N/A   Unknown
7:36 PM 48.2 °F - 46.4 °F 93% 30.33 in 3.7 mi Calm Calm - N/A   Unknown
7:56 PM 46.4 °F - 46.4 °F 100% 30.33 in 6.2 mi Calm Calm - N/A   Scattered Clouds
8:00 PM 46.4 °F - 46.4 °F 100% 30.33 in 6.2 mi Calm Calm - N/A   Scattered Clouds
8:30 PM 46.4 °F - 46.4 °F 100% 30.33 in 5.6 mi Calm Calm - N/A   Scattered Clouds
9:00 PM 46 °F - 45 °F 96% 30.36 in - Calm Calm - -  
9:00 PM 46.4 °F - 44.6 °F 93% 30.33 in 6.2 mi Calm Calm - N/A   Unknown
9:06 PM 46.4 °F - 44.6 °F 93% 30.36 in 3.7 mi Calm Calm - N/A   Unknown
9:27 PM 44.6 °F - 44.6 °F 100% 30.36 in 3.7 mi Calm Calm - N/A   Scattered Clouds
9:30 PM 46.4 °F - 44.6 °F 93% 30.36 in 3.1 mi Calm Calm - N/A   Scattered Clouds
9:47 PM 46.4 °F - 44.6 °F 93% 30.36 in 6.2 mi Calm Calm - N/A   Mostly Cloudy
10:00 PM 47 °F - 46 °F 94% 30.36 in - Calm Calm - -  
10:00 PM 46.4 °F - 46.4 °F 100% 30.36 in 6.2 mi Calm Calm - N/A   Overcast
10:30 PM 46.4 °F - 46.4 °F 100% 30.33 in 6.2 mi Calm Calm - N/A   Mostly Cloudy
11:00 PM 46.4 °F - 44.6 °F 93% 30.33 in 6.2 mi Calm Calm - N/A   Scattered Clouds
11:04 PM 46.4 °F - 44.6 °F 93% 30.33 in 3.7 mi Calm Calm - N/A   Scattered Clouds
11:30 PM 44.6 °F - 44.6 °F 100% 30.33 in 6.2 mi Calm Calm - N/A   Mostly Cloudy
11:34 PM 44.6 °F - 44.6 °F 100% 30.33 in 6.2 mi Calm Calm - N/A   Mostly Cloudy
11:57 PM 44.6 °F 42.2 °F 42.8 °F 93% 30.33 in 3.1 mi West 4.6 mph - N/A   Scattered Clouds
11:59 PM 44.6 °F 42.2 °F 42.8 °F 93% 30.33 in 0.6 mi West 4.6 mph - N/A   Scattered Clouds